Tracking 19800 objects as of 24-Jul-2019
HD Live streaming from Space Station
objects crossing your sky now

NADEZHDA 6

Track NADEZHDA 6 now!
10-day predictions
NADEZHDA 6 is classified as:


NORAD ID: 26384
Int'l Code: 2000-033A
Perigee: 667.8 km
Apogee: 691.0 km
Inclination: 97.9 °
Period: 98.2 minutes
Semi major axis: 7050 km
RCS: 1.836 m2 (large)
Launch date: June 28, 2000
Source: Commonwealth of Independent States (former USSR) (CIS)
Launch site: PLESETSK MISSILE AND SPACE COMPLEX (PKMTR)

Search and rescue; part of COSPAS/SARSAT fleet.
aabbcc
Your satellite tracking list
Your tracking list is empty




NASA's NSSDC Master Catalog

Two Line Element Set (TLE):
1 26384U 00033A   19205.11770112  .00000009  00000-0  10089-4 0  9997
2 26384  97.9130 258.5644 0016473 116.6884 243.6019 14.66507858 19211
Source of the keplerian elements: AFSPC